This is the latest recevied weather packets stored in our database for station/object AI9F. If no packets are shown the sender has not sent any weather packets the latest 10 day(s).
| Time | Temp. | Humidity | Pressure | Rain* | Wind** | Luminosity | Snow |
|---|---|---|---|---|---|---|---|
| 1777878801 | 14.44° C | 78% | 1011.9 hPa | 10.16 mm | - | 0 W/m² | - |
| 1777878499 | 14.44° C | 75% | 1011.5 hPa | 8.89 mm | - | 0 W/m² | - |
| 1777878195 | 15° C | 63% | 1011.3 hPa | 0 mm | - | 0 W/m² | - |
| 1777877892 | 15° C | 63% | 1010.6 hPa | 0 mm | - | 0 W/m² | - |
| 1777877589 | 14.44° C | 63% | 1010 hPa | 0 mm | - | 0 W/m² | - |
| 1777877285 | 14.44° C | 65% | 1009.8 hPa | 0 mm | - | 0 W/m² | - |
| 1777876983 | 14.44° C | 65% | 1009.8 hPa | 0 mm | - | 0 W/m² | - |
| 1777876680 | 14.44° C | 63% | 1009.8 hPa | 0 mm | - | 0 W/m² | - |
| 1777876378 | 14.44° C | 64% | 1009.8 hPa | 0 mm | - | 0 W/m² | - |
| 1777876073 | 14.44° C | 61% | 1010.1 hPa | 0 mm | - | 0 W/m² | - |
| 1777875769 | 14.44° C | 63% | 1010 hPa | 0 mm | - | 0 W/m² | - |
| 1777875466 | 14.44° C | 60% | 1009.9 hPa | 0 mm | - | 0 W/m² | - |
| 1777875163 | 13.89° C | 64% | 1009.8 hPa | 0 mm | - | 0 W/m² | - |
| 1777874860 | 13.89° C | 62% | 1010 hPa | 0 mm | - | 0 W/m² | - |
| 1777874555 | 13.89° C | 63% | 1010.1 hPa | 0 mm | - | 0 W/m² | - |
| 1777874254 | 14.44° C | 63% | 1009.9 hPa | 0 mm | - | 0 W/m² | - |
| 1777873950 | 13.89° C | 61% | 1010 hPa | 0 mm | - | 0 W/m² | - |
| 1777873647 | 13.89° C | 62% | 1009.7 hPa | 0 mm | - | 0 W/m² | - |
| 1777873345 | 14.44° C | 64% | 1009.5 hPa | 0 mm | - | 0 W/m² | - |
| 1777873041 | 14.44° C | 63% | 1009.8 hPa | 0 mm | - | 0 W/m² | - |
| 1777872738 | 14.44° C | 63% | 1009.6 hPa | 0 mm | - | 0 W/m² | - |
| 1777872435 | 14.44° C | 61% | 1009.9 hPa | 0 mm | - | 0 W/m² | - |
| 1777872134 | 14.44° C | 61% | 1010 hPa | 0 mm | - | 0 W/m² | - |
| 1777871830 | 14.44° C | 59% | 1010.1 hPa | 0 mm | - | 0 W/m² | - |
| 1777871526 | 14.44° C | 61% | 1010.3 hPa | 0 mm | - | 0 W/m² | - |
* Rain latest hour (hover to see other rain measurements)
** Current wind speed in m/s (hover to see current wind gust speed)